This is the latest recevied weather packets stored in our database for station/object K5FEP. If no packets are shown the sender has not sent any weather packets the latest 10 day(s).
| Time | Temp. | Humidity | Pressure | Rain* | Wind** | Luminosity | Snow |
|---|---|---|---|---|---|---|---|
| 1777339370 | 12.78° C | 70% | 1022.2 hPa | 0 mm | - | 0 W/m² | - |
| 1777339068 | 12.22° C | 70% | 1022 hPa | 0 mm | - | 0 W/m² | - |
| 1777338765 | 12.78° C | 73% | 1022.1 hPa | 0 mm | - | 0 W/m² | - |
| 1777338463 | 12.22° C | 70% | 1022 hPa | 0 mm | - | 0 W/m² | - |
| 1777338159 | 12.78° C | 69% | 1022.3 hPa | 0 mm | - | 0 W/m² | - |
| 1777337855 | 12.78° C | 72% | 1022 hPa | 0 mm | - | 0 W/m² | - |
| 1777337553 | 12.78° C | 70% | 1022 hPa | 0 mm | - | 0 W/m² | - |
| 1777337249 | 12.78° C | 68% | 1022 hPa | 0 mm | - | 0 W/m² | - |
| 1777336947 | 13.33° C | 66% | 1021.8 hPa | 0 mm | - | 0 W/m² | - |
| 1777336646 | 13.33° C | 66% | 1021.8 hPa | 0 mm | - | 0 W/m² | - |
| 1777336344 | 13.89° C | 63% | 1021.7 hPa | 0 mm | - | 0 W/m² | - |
| 1777336041 | 14.44° C | 62% | 1021.8 hPa | 0 mm | - | 0 W/m² | - |
| 1777335737 | 15° C | 61% | 1021.6 hPa | 0 mm | - | 0 W/m² | - |
| 1777335434 | 15° C | 56% | 1021.6 hPa | 0 mm | - | 0 W/m² | - |
| 1777335132 | 15.56° C | 53% | 1021.6 hPa | 0 mm | - | 0 W/m² | - |
| 1777334830 | 15.56° C | 53% | 1021.5 hPa | 0 mm | - | 1 W/m² | - |
| 1777334527 | 15.56° C | 52% | 1021.6 hPa | 0 mm | - | 2 W/m² | - |
| 1777334223 | 16.11° C | 51% | 1021.6 hPa | 0 mm | - | 4 W/m² | - |
| 1777333922 | 16.11° C | 50% | 1021.4 hPa | 0 mm | - | 6 W/m² | - |
| 1777333620 | 16.67° C | 50% | 1021.2 hPa | 0 mm | - | 9 W/m² | - |
| 1777333315 | 17.22° C | 50% | 1021.2 hPa | 0 mm | - | 12 W/m² | - |
| 1777333015 | 17.78° C | 47% | 1021.4 hPa | 0 mm | - | 15 W/m² | - |
| 1777332713 | 17.78° C | 45% | 1021.3 hPa | 0 mm | - | 20 W/m² | - |
| 1777332408 | 18.33° C | 44% | 1021.2 hPa | 0 mm | - | 26 W/m² | - |
| 1777332105 | 18.33° C | 43% | 1021.2 hPa | 0 mm | - | 30 W/m² | - |
* Rain latest hour (hover to see other rain measurements)
** Current wind speed in m/s (hover to see current wind gust speed)